[[{"header":{"parameterUnit":"m.s-1","parameterCategory":1,"la1":30.2991,"la2":30.254,"lo1":-89.0895,"lo2":-89.0444,"dy":0.0017,"dx":0.0017,"nx":28,"ny":28,"refTime":"2024-08-06T21:00:00:Z","depth":0,"parameterNumber":2,"parameterNumberName":"U-component_of_WINDS"},"data":[0,0,0,0,0,0,0,0,0,0,0,0,0,0,0,0,0,0,0,0,0,0,0,0,0,0,0,0,0,0,0,0,0,0,0,0,0,0,0,0,0,0,0,0,0,0,0,0,0,0,0,0,0,0,0,0,0,0,2.7685,2.7685,0,2.7738,2.7739,2.7739,2.7695,2.7693,2.7691,2.7689,2.775,2.7753,2.7756,0,0,0,0,0,0,0,0,0,0,0,0,0,2.7553,2.7555,2.7685,2.7685,2.7686,2.7738,2.7739,2.7739,2.7695,2.7693,2.7691,2.7688,2.7749,2.7753,2.7757,0,0,0,0,0,0,0,0,0,0,0,0,0,2.7608,2.7556,2.7685,2.767,2.7669,2.7738,2.7739,2.774,2.7696,2.7693,2.769,2.7687,2.7747,2.7752,2.7757,2.7844,0,0,2.7772,2.7775,0,0,0,0,0,0,0,0,2.7605,2.7613,2.7672,2.7671,2.7671,2.7707,2.7714,2.7775,2.7696,2.7686,2.7689,2.7686,2.7738,2.7744,2.776,2.7847,2.785,2.7773,2.7776,2.7778,2.778,0,0,0,0,0,0,0,2.7602,2.7611,2.7706,2.7673,2.7672,2.7664,2.7668,2.7725,2.7727,2.7687,2.7683,2.769,2.7737,2.7755,2.7761,2.7851,2.7773,2.7777,2.778,2.7782,2.8017,2.802,0,0,0,0,0,0,2.7598,2.7608,2.7704,2.7708,2.763,2.7668,2.7674,2.7698,2.7726,2.7728,2.7692,2.7688,2.7748,2.7755,2.7763,2.787,2.7778,2.7783,2.7786,2.8014,2.8018,2.8021,0,0,0,0,0,0,2.7595,2.7607,2.7702,2.7657,2.7668,2.7673,2.7701,2.7701,2.7718,2.7731,2.7732,2.771,2.7746,2.7756,2.7825,2.7872,2.7785,2.779,2.801,2.8015,2.802,2.8084,0,0,0,0,0,0,2.7592,2.7606,2.7638,2.7658,2.7671,2.7761,2.7704,2.7704,2.7727,2.7721,2.7748,2.7749,2.7745,2.7818,2.783,2.7877,2.7794,2.8006,2.8012,2.8018,2.8078,2.809,2.8101,0,0,0,0,0,2.7587,2.7654,2.7639,2.7651,2.771,2.7764,2.7772,2.7763,2.773,2.7764,2.7772,2.7748,2.7864,2.7825,2.7839,2.7888,2.8003,2.8011,2.8018,2.8072,2.8088,2.8101,0,0,0,0,0,0,2.764,2.7656,2.764,2.7715,2.7738,2.7756,2.7797,2.7779,2.7814,2.7807,2.7797,2.7804,2.7877,2.7889,2.7846,2.7976,2.7929,2.7939,2.7966,2.7981,2.7992,2.7989,2.7798,0,0,0,0,0,2.766,2.77,2.7713,2.7778,2.779,2.7792,2.7815,2.7807,2.7832,2.7842,2.7855,2.7882,2.7925,2.7953,2.7992,2.8079,2.8086,2.812,2.8131,2.8141,2.8151,2.8202,2.8218,2.8045,2.8045,2.8045,0,0,2.7702,2.7716,2.7742,2.7789,2.7806,2.7851,2.7801,2.7849,2.7884,2.785,2.7916,2.7927,2.7957,2.8036,2.8071,2.8048,2.82,2.815,2.8158,2.8162,2.8211,2.8227,2.8242,2.805,2.8049,2.8049,0,0,2.7803,2.7816,2.7873,2.7892,2.7918,2.7919,2.7933,2.7954,2.796,2.8026,2.8003,2.8045,2.8117,2.8141,2.8162,2.8275,2.8256,2.8288,2.835,2.84,2.8414,2.8426,2.847,2.8485,2.8298,2.8298,2.8298,0,2.7853,2.7918,2.7905,2.7957,2.798,2.795,2.801,2.8029,2.8068,2.8086,2.8059,2.8152,2.8169,2.8255,2.8283,2.83,2.8319,2.8286,2.8412,2.8424,2.8436,2.8477,2.8494,2.8302,2.8301,2.8301,2.83,0,2.798,2.8025,2.8069,2.8107,2.8134,2.819,2.8189,2.8219,2.8209,2.8214,2.8285,2.8304,2.835,2.8369,2.8359,2.8455,2.8441,2.8413,2.8366,2.8456,2.8496,2.8511,2.8307,2.8306,2.8305,2.8304,0,0,2.8115,2.8146,2.8163,2.8181,2.8209,2.8246,2.8302,2.8345,2.8372,2.8401,2.845,2.8514,2.8489,2.8514,2.8507,2.855,2.8644,2.8518,2.8519,2.8544,2.8755,2.8778,2.8796,2.8631,2.8633,2.8636,2.8754,0,2.8219,2.8314,2.8307,2.8398,2.8443,2.8416,2.8466,2.849,2.8497,2.8538,2.8546,2.8593,2.8555,2.8571,2.8612,2.8623,2.8687,2.8614,2.868,2.8683,2.8676,2.8816,2.8839,2.8949,2.8769,2.8771,2.8773,0,2.8353,2.8386,2.8482,2.8507,2.8526,2.857,2.8611,2.8649,2.8678,2.868,2.8708,2.8696,2.8756,2.8706,2.8791,2.8742,2.8769,2.8779,2.8783,2.8791,2.8735,2.8831,2.8984,2.9002,2.8797,2.8795,2.8793,0,2.8447,2.8515,2.8582,2.8598,2.8628,2.8661,2.8675,2.87,2.8728,2.8764,2.8783,2.8826,2.8851,2.8886,2.8887,2.8849,2.8975,2.8923,2.8982,2.8982,2.9011,2.9009,2.9173,2.9023,2.9023,2.9023,2.9022,0,2.8566,2.8626,2.8625,2.8667,2.8735,2.8727,2.8796,2.8807,2.8831,2.8877,2.8856,2.89,2.8897,2.8943,2.8944,2.9017,2.9027,2.9033,2.9034,2.9037,2.9036,2.9056,2.9049,2.9027,2.9026,2.9025,2.9024,0,2.8682,2.8683,2.8755,2.8777,2.8785,2.8835,2.8856,2.8897,2.8902,2.8961,2.8975,2.8985,2.9037,2.9041,2.9102,2.9103,2.9193,2.9183,2.9183,2.9182,2.9241,2.9237,2.9426,2.9452,2.9282,2.9283,2.9285,0,2.8759,2.8805,2.8833,2.8861,2.8878,2.8924,2.8952,2.8947,2.8977,2.9016,2.9054,2.9104,2.9145,2.9231,2.9246,2.9294,2.9287,2.935,2.9294,2.9297,2.9292,2.9291,2.9297,2.9361,2.9363,2.9365,2.9366,0,2.8897,2.8896,2.8936,2.8978,2.9012,2.9045,2.9076,2.9101,2.91,2.9136,2.9189,2.9221,2.9284,2.9336,2.9384,2.9401,2.9386,2.9383,2.94,2.9405,2.9404,2.9409,2.9216,2.9379,2.9378,2.9377,2.9376,2.9376,2.8998,2.9039,2.9066,2.9113,2.9136,2.9166,2.9207,2.9218,2.9261,2.9311,2.9306,2.9367,2.9398,2.946,2.9482,2.9531,2.951,2.9533,2.954,2.9546,2.9554,2.9394,2.9539,2.9539,2.9539,2.9538,2.9538,0,2.9138,2.9154,2.9197,2.9241,2.9279,2.9258,2.9292,2.9326,2.9379,2.9409,2.9449,2.9513,2.9564,2.9584,2.9634,2.9671,2.9665,2.9685,2.9683,2.9689,2.9568,2.955,2.9689,2.9689,2.9689,2.9689,2.9689,2.9689,2.9215,2.9285,2.9288,2.937,2.9387,2.9445,2.9466,2.9496,2.952,2.9591,2.9633,2.9645,2.9672,2.9725,2.9772,2.9777,2.9798,2.9822,2.9824,2.9712,2.9697,2.9682,2.9665,2.9826,2.9826,2.9941,2.9942,2.9943]},{"header":{"parameterUnit":"m.s-1","parameterCategory":1,"la1":30.2991,"la2":30.254,"lo1":-89.0895,"lo2":-89.0444,"dy":0.0017,"dx":0.0017,"nx":28,"ny":28,"refTime":"2024-08-06T21:00:00:Z","depth":0,"parameterNumber":3,"parameterNumberName":"V-component_of_WINDS"},"data":[0,0,0,0,0,0,0,0,0,0,0,0,0,0,0,0,0,0,0,0,0,0,0,0,0,0,0,0,0,0,0,0,0,0,0,0,0,0,0,0,0,0,0,0,0,0,0,0,0,0,0,0,0,0,0,0,0,0,0.9732,0.9734,0,0.9936,0.9938,0.9941,0.988,0.9875,0.9871,0.9867,1.0078,1.0087,1.0096,0,0,0,0,0,0,0,0,0,0,0,0,0,0.929,0.9299,0.9732,0.9734,0.9737,0.9936,0.9938,0.9941,0.988,0.9875,0.987,0.9865,1.0075,1.0086,1.0097,0,0,0,0,0,0,0,0,0,0,0,0,0,0.9487,0.9302,0.9731,0.9731,0.9732,0.9935,0.9938,0.9942,0.9881,0.9875,0.9869,0.9863,1.0071,1.0085,1.0099,1.0315,0,0,1.0143,1.0149,0,0,0,0,0,0,0,0,0.9476,0.9503,0.9728,0.9731,0.9733,0.9876,0.986,1.0067,0.9883,0.9825,0.9867,0.986,1.0016,1.0034,1.0087,1.0325,1.0334,1.0144,1.0153,1.0159,1.0163,0,0,0,0,0,0,0,0.9462,0.9494,0.9813,0.9731,0.9735,0.972,0.9741,0.9899,0.9954,0.983,0.9826,0.985,1.0016,1.0073,1.0091,1.0337,1.0144,1.0156,1.0165,1.0171,1.0762,1.0768,0,0,0,0,0,0,0.9447,0.9483,0.9806,0.9819,0.9586,0.9733,0.9757,0.9837,0.9952,0.9963,0.9856,0.9847,1.0052,1.0074,1.0098,1.0358,1.0159,1.0172,1.0181,1.0755,1.0763,1.0771,0,0,0,0,0,0,0.9438,0.9476,0.9798,0.965,0.969,0.9748,0.9838,0.9844,0.9901,0.9972,0.9981,0.9904,1.0047,1.0078,1.0261,1.0365,1.0179,1.0192,1.0746,1.0757,1.0767,1.0881,0,0,0,0,0,0,0.9425,0.9473,0.9556,0.9652,0.9698,0.9958,0.9844,0.9853,0.9925,0.9916,1.0019,1.003,1.0045,1.024,1.0276,1.0381,1.0203,1.0737,1.0751,1.0764,1.0868,1.0894,1.0916,0,0,0,0,0,0.941,0.9581,0.9561,0.96,0.9803,0.9964,0.999,1.0003,0.9934,1.0018,1.0063,1.0027,1.0348,1.0259,1.0299,1.041,1.0731,1.0747,1.0763,1.0857,1.0889,1.0916,0,0,0,0,0,0,0.9496,0.9593,0.9572,0.9779,0.9864,0.9953,1.006,1.0036,1.0142,1.0129,1.0141,1.0165,1.0352,1.0399,1.03,1.0625,1.0529,1.0554,1.0587,1.0618,1.0642,1.0627,1.0215,0,0,0,0,0,0.9539,0.9662,0.974,0.9915,0.9959,1.0002,1.0073,1.0075,1.0163,1.0199,1.0257,1.0345,1.0465,1.0544,1.0658,1.0874,1.0895,1.097,1.0994,1.1013,1.1035,1.1151,1.1185,1.0823,1.0823,1.0823,0,0,0.963,0.9698,0.9775,0.9934,1.0,1.0127,1.0032,1.0171,1.0265,1.022,1.0396,1.0442,1.054,1.074,1.0831,1.0785,1.1139,1.1034,1.1049,1.106,1.1171,1.1205,1.1236,1.0834,1.0832,1.083,0,0,0.986,0.9924,1.0076,1.0143,1.0243,1.0271,1.0307,1.0401,1.0429,1.0606,1.0574,1.0686,1.0893,1.0964,1.1027,1.1282,1.1252,1.1319,1.1445,1.1558,1.1587,1.1612,1.1703,1.1735,1.134,1.134,1.134,0,0.996,1.0149,1.0158,1.0299,1.0369,1.0333,1.0488,1.0553,1.0686,1.0735,1.0681,1.094,1.1003,1.1219,1.128,1.1333,1.1375,1.1308,1.1582,1.1607,1.1631,1.1717,1.1752,1.1347,1.1346,1.1346,1.1345,0,1.0267,1.0399,1.051,1.0638,1.0721,1.0868,1.0899,1.0982,1.0977,1.101,1.119,1.1264,1.1393,1.1444,1.1441,1.1659,1.1627,1.1578,1.1482,1.1673,1.1754,1.1787,1.1358,1.1355,1.1353,1.1351,0,0,1.0559,1.0688,1.0729,1.0786,1.0893,1.0995,1.114,1.1265,1.1336,1.1428,1.155,1.1725,1.1679,1.1751,1.1755,1.1854,1.205,1.1792,1.1795,1.1837,1.2295,1.2332,1.237,1.2031,1.2037,1.2042,1.2286,0,1.0798,1.1052,1.1063,1.1295,1.1416,1.1383,1.1509,1.1588,1.1622,1.173,1.1767,1.1891,1.1822,1.1865,1.1962,1.2006,1.2142,1.1988,1.2144,1.215,1.2121,1.2413,1.2453,1.268,1.2318,1.2324,1.2328,0,1.1111,1.1212,1.1455,1.1543,1.1595,1.1708,1.1822,1.1926,1.2015,1.2032,1.2111,1.2101,1.2248,1.2147,1.235,1.2245,1.2309,1.234,1.235,1.2365,1.2251,1.2436,1.2752,1.2787,1.2378,1.2374,1.237,0,1.1299,1.1496,1.1666,1.1716,1.1824,1.1904,1.1952,1.2034,1.2108,1.2208,1.2256,1.2372,1.2436,1.2526,1.2547,1.2471,1.275,1.265,1.2769,1.2769,1.2831,1.2827,1.3162,1.2871,1.2871,1.287,1.287,0,1.1565,1.1715,1.1752,1.1858,1.2024,1.2035,1.2201,1.2243,1.2316,1.2429,1.2407,1.2513,1.2534,1.2644,1.2661,1.2827,1.2856,1.2874,1.2877,1.2877,1.2875,1.292,1.2905,1.2879,1.2877,1.2876,1.2874,0,1.1804,1.1835,1.2019,1.2104,1.2129,1.2249,1.2322,1.2423,1.2453,1.2596,1.263,1.2679,1.2808,1.2837,1.299,1.3001,1.3198,1.3185,1.3168,1.3167,1.3284,1.3273,1.3661,1.3712,1.3388,1.3391,1.3393,0,1.1972,1.2086,1.2184,1.2257,1.2309,1.2428,1.2503,1.2517,1.2596,1.2705,1.2793,1.2918,1.302,1.3228,1.3277,1.3393,1.3383,1.3511,1.3401,1.3397,1.3385,1.3378,1.339,1.3533,1.3536,1.3539,1.3541,0,1.2266,1.2275,1.2384,1.2498,1.2587,1.2678,1.2764,1.2825,1.2852,1.2941,1.3072,1.3151,1.3307,1.3432,1.3549,1.3598,1.3575,1.3575,1.3609,1.361,1.3595,1.3605,1.3226,1.3567,1.3564,1.3562,1.3561,1.356,1.2475,1.2575,1.2659,1.278,1.2846,1.2926,1.3025,1.3067,1.3176,1.3304,1.3306,1.3449,1.3533,1.3687,1.3744,1.3855,1.3816,1.3865,1.3877,1.3889,1.39,1.3577,1.3877,1.3876,1.3875,1.3875,1.3874,0,1.2769,1.282,1.2931,1.3052,1.3147,1.3115,1.3208,1.329,1.3416,1.3496,1.3596,1.3746,1.3867,1.3925,1.4044,1.4123,1.4115,1.4154,1.4148,1.416,1.3928,1.3887,1.4158,1.4158,1.4158,1.4158,1.4158,1.4158,1.2932,1.3099,1.3118,1.3317,1.3368,1.3507,1.3563,1.3637,1.3701,1.3869,1.3969,1.4006,1.4077,1.4201,1.431,1.4324,1.4369,1.4414,1.4422,1.4205,1.4176,1.4149,1.411,1.4423,1.4424,1.4645,1.4647,1.4648]}]]